Location: Unspecified
(41.5516°N, 88.1098°W)
Time: 20:43:13
(UTC-05:00)

Cosmos 2058 - Visible Passes

Search period start: 26 June 2017 00:00
Search period end: 06 July 2017 00:00
Orbit: 565 x 584 km, 82.5° (Epoch: 26 June)

Date Brightness Start Highest point End Pass type
(mag) Time Alt. Az. Time Alt. Az. Time Alt. Az.
26 Jun 4.7 21:44:53 14° ESE 21:46:21 17° E 21:49:04 10° NE visible
26 Jun 4.2 23:21:05 24° SW 23:22:58 37° WNW 23:26:54 10° N visible
27 Jun 4.3 21:47:51 17° ESE 21:49:37 22° E 21:52:53 10° NE visible
27 Jun 4.7 23:24:03 17° WSW 23:26:23 28° WNW 23:30:04 10° NNW visible
28 Jun 4.0 21:50:48 19° SE 21:52:54 29° E 21:56:33 10° NNE visible
28 Jun 5.1 23:26:59 12° WSW 23:29:50 22° WNW 23:33:08 10° NNW visible
29 Jun 3.5 21:53:41 19° SSE 21:56:12 38° E 22:00:07 10° NNE visible
29 Jun 5.5 23:30:33 10° WSW 23:33:18 17° WNW 23:36:04 10° NNW visible
30 Jun 3.1 21:56:32 17° SSE 21:59:30 52° E 22:03:37 10° NNE visible
30 Jun 5.7 23:34:50 10° W 23:36:48 13° WNW 23:38:45 10° NW visible
01 Jul 2.9 21:59:19 14° S 22:02:50 71° E 22:07:03 10° NNE visible
02 Jul 2.9 22:02:04 10° S 22:06:12 85° W 22:10:26 10° N visible
03 Jul 3.4 22:05:24 10° SSW 22:09:34 63° W 22:13:46 10° N visible
04 Jul 3.9 22:08:54 10° SSW 22:12:57 46° WNW 22:17:02 10° N visible
05 Jul 4.5 22:12:31 10° SW 22:16:22 34° WNW 22:20:15 10° N visible
